Погода в Красноярском

Россия / Оренбургская область     51°58′02″N   59°54′01″E
темп.,
°C
ветер,
м/с
пор.,
м/с
влажн.,
%
обл.,
%
осадки,
мм/ч
давл.,
гПа
погр.,
м
17 мая, пн
пн1723:00+21зсз34395 0.0 102150
02:00+19ссв464529 0.0 102172
05:00+18с22463 0.0 102211
08:00+23з22392 0.0 1022170
11:00+28зсз34233 0.0 10211261
14:00+31з341824 0.0 10203597
17:00+31зсз331710 0.0 10193631
20:00+25зюз91234100 0.0 1019475
18 мая, вт
вт1823:00+20сз375425 0.0 1020183
02:00+18зюз345999 0.0 101953
05:00+16зсз476693 0.0 1018105
08:00+21ссз344829 0.0 1018238
11:00+27ссз333096 0.0 1016896
14:00+30ссз3223100 0.0 10153483
17:00+21юв71050100 0.2 1014254
20:00+23св224498 0.3 101432
19 мая, ср
ср1923:00+18вюв33605 1.1 101538
02:00+16ссв6117044 0.3 1015310
05:00+15св815832 0.5 1016464
08:00+16св1014739 0.0 1018774
11:00+19всв1010501 0.0 10181324
14:00+21всв1010430 0.0 10191778
17:00+22всв810342 0.0 10192049
20:00+19всв812340 0.0 1019583
20 мая, чт
чт2023:00+15всв613430 0.0 1021401
02:00+13всв512501 0.0 1023322
05:00+11всв410580 0.0 1023209
08:00+15вюв610460 0.0 1024735
11:00+20вюв783312 0.0 10241637
14:00+22вюв67264 0.0 10231853
17:00+23юв67250 0.0 10221927
20:00+20юв59340 0.0 1021252
21 мая, пт
пт2123:00+15юв49450 0.0 1022145
02:00+14юв49500 0.0 1022155
05:00+13юв410520 0.0 1022162
08:00+18юв610420 0.0 1022391
11:00+23ююв67271 0.0 10221375
14:00+26ююв66225 0.0 10212344
17:00+26ю662312 0.0 10202236
20:00+22ю34365 0.0 102055